Regional Weather Roundup
Issued by NWS

Home | Current Version | Previous Version | Text Only | Print | Product List | Glossary On
Versions: 1 2 3 4 5 6 7 8 9 10 11 12 13 14 15 16 17 18 19 20 21 22 23 24 25 26 27 28 29 30 31 32 33 34 35 36 37 38 39 40 41 42 43 44 45 46 47 48 49 50
000
ASUS44 KMEG 291910
RWRTN
TENNESSEE HOURLY STATE WEATHER ROUNDUP
NATIONAL WEATHER SERVICE MEMPHIS TN
200 PM CDT WED MAR 29 2017

TNZ002-004-019-021-049-052-054-088>092-292000-
WEST TENNESSEE

CITY           SKY/WX    TMP DP  RH WIND       PRES   REMARKS
MEMPHIS INTL   PTSUNNY   82  59  45 S14G23    29.88F
NWS MEMPHIS      N/A     81 N/A N/A MISG        N/A
JACKSON        PTSUNNY   79  60  52 SW10      29.93F
DYERSBURG      PTSUNNY   78  62  57 SE13G18   29.89F
SOMERVILLE     SUNNY     81  59  47 S13G22    29.89F
BOLIVAR        SUNNY     81  59  47 S10G20    29.91F
PARIS          SUNNY     73  57  56 VRB3      29.97F
HUNTINGDON     MOSUNNY   77  63  61 S7        29.94F
SAVANNAH       PTSUNNY   79  64  61 S6        29.95F
$$

TNZ008-025-027-028-033-062-065-066-292000-
NORTH MIDDLE TENNESSEE

CITY           SKY/WX    TMP DP  RH WIND       PRES   REMARKS
NASHVILLE      MOSUNNY   78  53  41 VRB7      30.02F
PORTLAND       SUNNY     73  52  46 CALM      30.02F
CLARKSVILLE    PTSUNNY   73  56  54 E7        30.00F
SMYRNA         SUNNY     78  57  48 S6        30.02F
COOKEVILLE     SUNNY     77  50  38 CALM      30.03F
GALLATIN       SUNNY     75  52  43 VRB3      30.04F
CROSSVILLE     SUNNY     75  50  41 W10G20    30.07F
$$

TNZ061-075-076-078-094-096-097-292000-
SOUTH MIDDLE TENNESSEE

CITY           SKY/WX    TMP DP  RH WIND       PRES   REMARKS
FAYETTEVILLE   PTSUNNY   77  59  53 W3        30.02F
TULLAHOMA      PTSUNNY   77  55  47 CALM      30.03F
WINCHESTER     SUNNY     79  57  47 VRB3      30.02F
MCMINNVILLE    SUNNY     77  57  50 VRB5      30.03F
COLUMBIA       PTSUNNY   79  61  53 SW3       29.98F
SHELBYVILLE    SUNNY     81  63  54 VRB3      30.02F
$$

TNZ017-018-042-046-047-292000-
NORTHEAST TENNESSEE

CITY           SKY/WX    TMP DP  RH WIND       PRES   REMARKS
TRI CITIES     MOSUNNY   74  49  41 VRB5      30.04F
ELIZABETHTON   SUNNY     75  50  41 VRB6      30.02F
$$

TNZ012-013-036-069-073-074-292000-
CENTRAL EAST TENNESSEE

CITY           SKY/WX    TMP DP  RH WIND       PRES   REMARKS
KNOXVILLE      MOSUNNY   74  50  42 CALM      30.04S
OAK RIDGE      SUNNY     78  49  35 VRB3      30.05F
DOWNTOWN KNOXV SUNNY     75  54  46 W8        30.05S
GATLINBURG     SUNNY     73  52  46 NW5       30.04R
MORRISTOWN     SUNNY     72  52  49 W8        30.05R
JACKSBORO      SUNNY     75  52  43 VRB5      30.07F
$$

TNZ083-085-099-292000-
SOUTHEAST TENNESSEE

CITY           SKY/WX    TMP DP  RH WIND       PRES   REMARKS
CHATTANOOGA    MOSUNNY   78  54  43 VRB5      30.03F
$$

SKY/WX REPORTED AS FAIR MEANS FEW OR NO CLOUDS BELOW
12 THOUSAND FEET.




USA.gov is the U.S. government's official web portal to all federal, state and local government web resources and services.